EDT,Max TemperatureF,Mean TemperatureF,Min TemperatureF,Max Dew PointF,MeanDew PointF,Min DewpointF,Max Humidity, Mean Humidity, Min Humidity, Max Sea Level PressureIn, Mean Sea Level PressureIn, Min Sea Level PressureIn, Max VisibilityMiles, Mean VisibilityMiles, Min VisibilityMiles, Max Wind SpeedMPH, Mean Wind SpeedMPH, Max Gust SpeedMPH,PrecipitationIn, CloudCover, Events, WindDirDegrees
2011-10-1,64,58,51,58,54,48,97,89,73,29.75,29.68,29.62,10,8,2,9,3,18,0.64,8,Rain,344
2011-10-2,62,54,48,50,47,46,93,83,67,29.91,29.79,29.70,10,10,10,7,3,,0.00,7,Rain,147
2011-10-3,59,52,46,48,45,41,100,82,53,30.05,29.99,29.90,10,10,9,6,2,,0.00,6,,157
2011-10-4,66,56,45,50,47,43,97,76,48,30.05,30.03,29.99,10,10,4,13,3,17,0.03,4,Rain,316
2011-10-5,73,60,48,50,45,40,93,61,31,30.29,30.10,30.04,10,10,10,14,4,24,0.00,0,,328
2011-10-6,70,54,39,46,40,32,97,69,30,30.38,30.33,30.26,10,10,6,8,1,,0.01,0,,307
2011-10-7,70,52,37,47,40,33,93,70,27,30.48,30.43,30.35,10,10,3,5,1,,0.01,0,,352
2011-10-8,78,60,41,51,45,39,97,67,36,30.51,30.46,30.39,10,10,6,5,0,,0.00,0,,200
2011-10-9,84,72,55,61,57,51,96,73,31,30.30,30.30,30.29,,,,4,1,,0.01,0,,300
2011-10-10,82,71,57,63,58,50,96,70,33,30.22,30.16,30.14,,,,0,0,,0.00,0,,-1
2011-10-11,77,64,53,57,53,49,96,72,38,30.20,30.15,30.12,10,10,8,7,1,,0.00,0,,46
2011-10-12,63,58,55,56,54,51,97,83,68,30.14,30.04,29.91,10,10,6,9,3,16,0.19,7,Rain,48
2011-10-13,66,62,57,65,60,55,97,92,87,29.89,29.76,29.62,10,8,2,9,4,,0.01,8,Rain,48
2011-10-14,75,67,55,68,63,45,100,89,58,29.61,29.49,29.33,10,9,2,12,4,31,0.27,6,Rain-Thunderstorm,160
2011-10-15,66,54,44,43,41,36,93,60,34,29.79,29.65,29.58,10,10,10,13,4,24,0.00,2,,219
2011-10-16,68,59,50,50,39,33,80,51,34,29.92,29.81,29.65,10,10,10,13,5,21,0.00,3,,200
2011-10-17,68,56,45,51,41,32,86,57,27,29.80,29.74,29.64,10,10,10,10,3,20,0.00,3,Rain,262
2011-10-18,71,56,41,49,43,36,96,72,28,29.88,29.84,29.79,10,10,10,6,1,,0.02,1,Rain,339
2011-10-19,63,56,51,61,57,48,100,90,72,29.86,29.64,29.33,10,6,2,14,5,24,0.48,8,Rain-Thunderstorm,41
2011-10-20,69,61,53,70,53,39,100,75,48,29.70,29.44,29.29,10,9,4,13,5,46,0.05,5,Rain,194
2011-10-21,59,50,45,43,39,36,93,65,51,30.02,29.90,29.72,10,10,10,9,4,20,0.00,6,,245
2011-10-22,57,47,37,43,40,36,97,76,51,30.11,30.07,30.03,10,8,2,7,1,,0.00,4,,283
2011-10-23,62,50,39,45,40,37,100,80,41,30.15,30.11,30.07,10,7,0,5,0,,0.01,3,Fog,-1
2011-10-24,62,50,37,51,44,36,97,84,60,30.14,30.05,29.96,10,7,3,6,1,,0.01,4,Rain,200
2011-10-25,64,52,39,49,38,29,96,74,27,30.09,30.03,29.98,10,7,0,16,2,28,0.01,0,Fog,300
2011-10-26,64,52,39,50,44,37,97,83,54,30.03,29.86,29.73,10,10,8,4,1,,0.00,2,,238
2011-10-27,57,49,39,55,46,33,100,91,76,29.97,29.68,29.59,10,5,1,13,3,20,0.55,8,Rain,11
2011-10-28,52,42,34,37,29,19,87,60,32,30.24,30.17,30.00,10,10,10,9,5,16,0.00,2,,349
2011-10-29,43,38,33,37,32,30,96,88,60,30.22,29.97,29.86,10,4,0,16,7,25,0.84,8,Fog-Rain-Snow,5
2011-10-30,48,39,28,32,28,25,92,71,42,30.35,30.16,29.94,10,10,5,12,6,17,0.81,1,,323
2011-10-31,52,38,25,37,30,23,93,78,43,30.40,30.35,30.30,10,10,10,10,0,26,0.01,0,,80